Time,TemperatureF,DewpointF,PressureIn,WindDirection,WindDirectionDegrees,WindSpeedMPH,WindSpeedGustMPH,Humidity,HourlyPrecipIn,Conditions,Clouds,dailyrainin,SoftwareType,DateUTC
2013-02-04 00:00:00,25.6,13.2,29.99,NNE,12,1.0,2.0,59,0.00,,,0.02,Wunderground v.1.15,2013-02-04 05:00:00,
2013-02-04 00:01:00,25.5,13.5,29.99,NW,309,1.0,2.0,60,0.00,,,0.02,Wunderground v.1.15,2013-02-04 05:01:00,
2013-02-04 00:02:00,25.5,13.5,29.99,North,5,1.0,2.0,60,0.00,,,0.00,Wunderground v.1.15,2013-02-04 05:02:00,
2013-02-04 00:04:00,25.4,13.4,29.99,NE,52,1.0,2.0,60,0.00,,,0.00,Wunderground v.1.15,2013-02-04 05:04:00,
2013-02-04 00:10:00,25.2,13.0,30.00,NW,311,1.0,3.0,60,0.00,,,0.00,weatherlink.com 1.10,2013-02-04 05:10:00,
2013-02-04 00:15:00,25.1,13.5,30.00,NE,36,1.0,2.0,61,0.00,,,0.00,Wunderground v.1.15,2013-02-04 05:15:00,
2013-02-04 00:20:00,25.1,13.2,30.00,North,5,1.0,1.0,60,0.00,,,0.00,Wunderground v.1.15,2013-02-04 05:20:00,
2013-02-04 00:25:00,25.0,13.0,30.00,NE,40,0.0,9.0,61,0.00,,,0.00,weatherlink.com 1.10,2013-02-04 05:25:00,
2013-02-04 00:31:00,24.8,12.9,30.00,North,5,2.0,3.0,60,0.00,,,0.00,Wunderground v.1.15,2013-02-04 05:31:00,
2013-02-04 00:36:00,24.8,12.9,30.00,NNE,28,2.0,4.0,60,0.00,,,0.00,Wunderground v.1.15,2013-02-04 05:36:00,
2013-02-04 00:41:00,24.7,12.8,30.00,NNE,33,3.0,3.0,60,0.00,,,0.00,Wunderground v.1.15,2013-02-04 05:41:00,
2013-02-04 00:47:00,24.6,13.4,30.00,NNE,19,2.0,3.0,62,0.00,,,0.00,Wunderground v.1.15,2013-02-04 05:47:00,
2013-02-04 00:52:00,24.5,13.0,30.00,North,5,2.0,4.0,61,0.00,,,0.00,Wunderground v.1.15,2013-02-04 05:52:00,
2013-02-04 00:57:00,24.5,13.0,30.00,NNW,343,3.0,4.0,61,0.00,,,0.00,Wunderground v.1.15,2013-02-04 05:57:00,
2013-02-04 01:04:00,24.4,13.6,30.00,WNW,298,2.0,3.0,63,0.00,,,0.00,Wunderground v.1.15,2013-02-04 06:04:00,
2013-02-04 01:09:00,24.3,13.1,30.00,North,11,2.0,5.0,62,0.00,,,0.00,Wunderground v.1.15,2013-02-04 06:09:00,
2013-02-04 01:14:00,24.3,13.5,30.00,NNE,30,2.0,2.0,63,0.00,,,0.00,Wunderground v.1.15,2013-02-04 06:14:00,
2013-02-04 01:19:00,24.2,13.0,30.00,NNW,332,2.0,3.0,62,0.00,,,0.00,Wunderground v.1.15,2013-02-04 06:19:00,
2013-02-04 01:24:00,24.1,12.9,30.00,NE,41,2.0,3.0,62,0.00,,,0.00,Wunderground v.1.15,2013-02-04 06:24:00,
2013-02-04 01:30:00,24.1,13.3,30.00,North,5,2.0,2.0,63,0.00,,,0.00,Wunderground v.1.15,2013-02-04 06:30:00,
2013-02-04 01:35:00,24.1,13.3,30.00,ESE,104,2.0,3.0,63,0.00,,,0.00,Wunderground v.1.15,2013-02-04 06:35:00,
2013-02-04 01:40:00,24.0,13.2,30.00,NNE,22,2.0,2.0,63,0.00,,,0.00,Wunderground v.1.15,2013-02-04 06:40:00,
2013-02-04 01:45:00,24.0,13.2,30.00,NNE,17,1.0,2.0,63,0.00,,,0.00,Wunderground v.1.15,2013-02-04 06:45:00,
2013-02-04 01:50:00,24.0,13.6,30.00,NNE,19,1.0,1.0,64,0.00,,,0.00,Wunderground v.1.15,2013-02-04 06:50:00,
2013-02-04 01:55:00,24.0,13.6,30.00,NNE,26,1.0,2.0,64,0.00,,,0.00,Wunderground v.1.15,2013-02-04 06:55:00,
2013-02-04 02:00:00,24.0,13.6,30.01,NNE,30,1.0,1.0,64,0.00,,,0.00,Wunderground v.1.15,2013-02-04 07:00:00,
2013-02-04 02:06:00,24.0,13.2,30.01,NE,34,2.0,2.0,63,0.00,,,0.00,Wunderground v.1.15,2013-02-04 07:06:00,
2013-02-04 02:11:00,23.9,13.5,30.00,North,11,2.0,3.0,64,0.00,,,0.00,Wunderground v.1.15,2013-02-04 07:11:00,
2013-02-04 02:16:00,24.0,13.6,30.00,NNW,345,1.0,3.0,64,0.00,,,0.00,Wunderground v.1.15,2013-02-04 07:16:00,
2013-02-04 02:22:00,23.9,13.5,30.00,WNW,300,1.0,1.0,64,0.00,,,0.00,Wunderground v.1.15,2013-02-04 07:22:00,
2013-02-04 02:28:00,23.9,13.5,30.01,NNE,23,1.0,2.0,64,0.00,,,0.00,Wunderground v.1.15,2013-02-04 07:28:00,
2013-02-04 02:33:00,23.9,13.5,30.01,ENE,74,1.0,2.0,64,0.00,,,0.00,Wunderground v.1.15,2013-02-04 07:33:00,
2013-02-04 02:39:00,23.9,13.5,30.01,NNW,338,1.0,2.0,64,0.00,,,0.00,Wunderground v.1.15,2013-02-04 07:39:00,
2013-02-04 02:44:00,23.9,13.5,30.01,North,360,1.0,2.0,64,0.00,,,0.00,Wunderground v.1.15,2013-02-04 07:44:00,
2013-02-04 02:49:00,24.0,13.6,30.01,NE,34,1.0,3.0,64,0.00,,,0.00,Wunderground v.1.15,2013-02-04 07:49:00,
2013-02-04 02:54:00,24.0,13.2,30.01,NW,312,1.0,2.0,63,0.00,,,0.00,Wunderground v.1.15,2013-02-04 07:54:00,
2013-02-04 02:59:00,24.0,13.2,30.01,NE,38,1.0,4.0,63,0.00,,,0.00,Wunderground v.1.15,2013-02-04 07:59:00,
2013-02-04 03:04:00,24.0,13.2,30.01,NE,45,1.0,3.0,63,0.00,,,0.00,Wunderground v.1.15,2013-02-04 08:04:00,
2013-02-04 03:09:00,24.0,12.9,30.01,NE,40,2.0,3.0,62,0.00,,,0.00,Wunderground v.1.15,2013-02-04 08:09:00,
2013-02-04 03:15:00,23.9,13.5,30.00,North,355,1.0,2.0,64,0.00,,,0.00,Wunderground v.1.15,2013-02-04 08:15:00,
2013-02-04 03:20:00,23.9,13.1,30.00,NE,37,1.0,1.0,63,0.00,,,0.00,Wunderground v.1.15,2013-02-04 08:20:00,
2013-02-04 03:25:00,23.7,13.3,30.01,North,355,1.0,2.0,64,0.00,,,0.00,Wunderground v.1.15,2013-02-04 08:25:00,
2013-02-04 03:30:00,23.7,13.3,30.01,NE,38,1.0,1.0,64,0.00,,,0.00,Wunderground v.1.15,2013-02-04 08:30:00,
2013-02-04 03:35:00,23.7,13.6,30.01,NE,38,1.0,2.0,65,0.00,,,0.00,Wunderground v.1.15,2013-02-04 08:35:00,
2013-02-04 03:41:00,23.6,13.5,30.01,NE,43,1.0,2.0,65,0.00,,,0.00,Wunderground v.1.15,2013-02-04 08:41:00,
2013-02-04 03:46:00,23.6,13.2,30.01,NE,51,1.0,3.0,64,0.00,,,0.00,Wunderground v.1.15,2013-02-04 08:46:00,
2013-02-04 03:51:00,23.6,13.2,30.01,NE,34,2.0,2.0,64,0.00,,,0.00,Wunderground v.1.15,2013-02-04 08:51:00,
2013-02-04 03:56:00,23.5,13.1,30.00,North,355,2.0,3.0,64,0.00,,,0.00,Wunderground v.1.15,2013-02-04 08:56:00,
2013-02-04 04:02:00,23.5,13.1,30.00,NNE,17,2.0,4.0,64,0.00,,,0.00,Wunderground v.1.15,2013-02-04 09:02:00,
2013-02-04 04:07:00,23.4,13.0,30.00,North,5,2.0,4.0,64,0.00,,,0.00,Wunderground v.1.15,2013-02-04 09:07:00,
2013-02-04 04:13:00,23.4,12.0,30.01,NNE,26,3.0,7.0,63,0.00,,,0.00,weatherlink.com 1.10,2013-02-04 09:13:00,
2013-02-04 04:19:00,23.3,12.9,30.01,NNE,30,2.0,3.0,64,0.00,,,0.00,Wunderground v.1.15,2013-02-04 09:19:00,
2013-02-04 04:24:00,23.2,12.8,30.01,NNE,28,1.0,3.0,64,0.00,,,0.00,Wunderground v.1.15,2013-02-04 09:24:00,
2013-02-04 04:29:00,23.1,12.7,30.01,WNW,287,1.0,3.0,64,0.00,,,0.00,Wunderground v.1.15,2013-02-04 09:29:00,
2013-02-04 04:34:00,23.1,12.7,30.01,North,11,1.0,2.0,64,0.00,,,0.00,Wunderground v.1.15,2013-02-04 09:34:00,
2013-02-04 04:39:00,23.0,12.6,30.01,North,9,1.0,2.0,64,0.00,,,0.00,Wunderground v.1.15,2013-02-04 09:39:00,
2013-02-04 04:44:00,23.0,12.6,30.00,NNE,16,1.0,3.0,64,0.00,,,0.00,Wunderground v.1.15,2013-02-04 09:44:00,
2013-02-04 04:50:00,22.9,12.5,30.00,NE,51,1.0,2.0,64,0.00,,,0.00,Wunderground v.1.15,2013-02-04 09:50:00,
2013-02-04 04:55:00,22.8,12.4,30.01,North,5,1.0,2.0,64,0.00,,,0.00,Wunderground v.1.15,2013-02-04 09:55:00,
2013-02-04 05:01:00,22.8,12.4,30.01,NNE,22,1.0,1.0,64,0.00,,,0.00,Wunderground v.1.15,2013-02-04 10:01:00,
2013-02-04 05:06:00,22.9,12.5,30.01,NNE,32,1.0,4.0,64,0.00,,,0.00,Wunderground v.1.15,2013-02-04 10:06:00,
2013-02-04 05:11:00,22.8,12.8,30.01,NNE,32,1.0,2.0,65,0.00,,,0.00,Wunderground v.1.15,2013-02-04 10:11:00,
2013-02-04 05:16:00,22.7,12.3,30.01,NE,34,1.0,3.0,64,0.00,,,0.00,Wunderground v.1.15,2013-02-04 10:16:00,
2013-02-04 05:21:00,22.6,12.6,30.02,NNW,338,1.0,2.0,65,0.00,,,0.00,Wunderground v.1.15,2013-02-04 10:21:00,
2013-02-04 05:26:00,22.7,13.0,30.02,NNE,25,1.0,3.0,66,0.00,,,0.00,Wunderground v.1.15,2013-02-04 10:26:00,
2013-02-04 05:32:00,22.7,12.3,30.02,WNW,301,1.0,3.0,64,0.00,,,0.00,Wunderground v.1.15,2013-02-04 10:32:00,
2013-02-04 05:37:00,22.7,12.7,30.02,NE,55,2.0,5.0,65,0.00,,,0.00,Wunderground v.1.15,2013-02-04 10:37:00,
2013-02-04 05:42:00,22.8,12.4,30.02,WNW,294,2.0,3.0,64,0.00,,,0.00,Wunderground v.1.15,2013-02-04 10:42:00,
2013-02-04 05:47:00,22.8,12.8,30.02,NE,44,2.0,3.0,65,0.00,,,0.00,Wunderground v.1.15,2013-02-04 10:47:00,
2013-02-04 05:52:00,22.8,12.4,30.02,WNW,294,1.0,1.0,64,0.00,,,0.00,Wunderground v.1.15,2013-02-04 10:52:00,
2013-02-04 05:57:00,22.8,12.4,30.02,NW,304,2.0,4.0,64,0.00,,,0.00,Wunderground v.1.15,2013-02-04 10:57:00,
2013-02-04 06:02:00,22.8,12.8,30.03,NE,36,1.0,2.0,65,0.00,,,0.00,Wunderground v.1.15,2013-02-04 11:02:00,
2013-02-04 06:07:00,22.7,12.7,30.03,NNE,27,1.0,2.0,65,0.00,,,0.00,Wunderground v.1.15,2013-02-04 11:07:00,
2013-02-04 06:12:00,22.6,12.6,30.03,NNE,27,1.0,1.0,65,0.00,,,0.00,Wunderground v.1.15,2013-02-04 11:12:00,
2013-02-04 06:18:00,22.5,12.5,30.03,NNE,31,1.0,4.0,65,0.00,,,0.00,Wunderground v.1.15,2013-02-04 11:18:00,
2013-02-04 06:24:00,22.7,12.7,30.03,NNW,329,2.0,2.0,65,0.00,,,0.00,Wunderground v.1.15,2013-02-04 11:24:00,
2013-02-04 06:29:00,22.9,12.5,30.03,NNE,24,2.0,6.0,64,0.00,,,0.00,Wunderground v.1.15,2013-02-04 11:29:00,
2013-02-04 06:34:00,22.8,12.4,30.03,NNE,16,2.0,2.0,64,0.00,,,0.00,Wunderground v.1.15,2013-02-04 11:34:00,
2013-02-04 06:39:00,22.7,12.7,30.03,NNE,18,1.0,2.0,65,0.00,,,0.00,Wunderground v.1.15,2013-02-04 11:39:00,
2013-02-04 06:44:00,22.7,12.7,30.04,NNE,15,1.0,2.0,65,0.00,,,0.00,Wunderground v.1.15,2013-02-04 11:44:00,
2013-02-04 06:50:00,22.7,12.7,30.04,NNE,24,1.0,1.0,65,0.00,,,0.00,Wunderground v.1.15,2013-02-04 11:50:00,
2013-02-04 06:55:00,22.7,12.7,30.05,NNE,24,0.0,1.0,65,0.00,,,0.00,Wunderground v.1.15,2013-02-04 11:55:00,
2013-02-04 07:00:00,22.6,12.6,30.05,NNE,13,1.0,1.0,65,0.00,,,0.00,Wunderground v.1.15,2013-02-04 12:00:00,
2013-02-04 07:06:00,22.7,12.7,30.05,WNW,303,1.0,3.0,65,0.00,,,0.00,Wunderground v.1.15,2013-02-04 12:06:00,
2013-02-04 07:12:00,22.8,12.8,30.06,WSW,257,1.0,2.0,65,0.00,,,0.00,Wunderground v.1.15,2013-02-04 12:12:00,
2013-02-04 07:17:00,22.6,13.3,30.06,South,171,1.0,2.0,67,0.00,,,0.00,Wunderground v.1.15,2013-02-04 12:17:00,
2013-02-04 07:24:00,22.5,13.9,30.07,SSE,162,1.0,1.0,69,0.00,,,0.00,Wunderground v.1.15,2013-02-04 12:24:00,
2013-02-04 07:29:00,22.3,13.3,30.07,SSE,162,0.0,1.0,68,0.00,,,0.00,Wunderground v.1.15,2013-02-04 12:29:00,
2013-02-04 07:34:00,22.2,12.6,30.07,SSE,162,0.0,1.0,66,0.00,,,0.00,Wunderground v.1.15,2013-02-04 12:34:00,
2013-02-04 07:39:00,22.1,13.1,30.07,SSE,162,0.0,1.0,68,0.00,,,0.00,Wunderground v.1.15,2013-02-04 12:39:00,
2013-02-04 07:44:00,22.2,13.2,30.07,South,188,1.0,2.0,68,0.00,,,0.00,Wunderground v.1.15,2013-02-04 12:44:00,
2013-02-04 07:49:00,22.3,13.3,30.08,WSW,257,1.0,2.0,68,0.00,,,0.00,Wunderground v.1.15,2013-02-04 12:49:00,
2013-02-04 07:54:00,22.5,13.5,30.08,South,184,1.0,1.0,68,0.00,,,0.00,Wunderground v.1.15,2013-02-04 12:54:00,
2013-02-04 07:59:00,22.8,13.5,30.08,SW,218,1.0,8.0,67,0.00,,,0.00,Wunderground v.1.15,2013-02-04 12:59:00,
2013-02-04 08:04:00,23.0,13.7,30.08,SW,219,1.0,1.0,67,0.00,,,0.00,Wunderground v.1.15,2013-02-04 13:04:00,
2013-02-04 08:10:00,23.1,14.4,30.08,SW,218,0.0,0.0,69,0.00,,,0.00,Wunderground v.1.15,2013-02-04 13:10:00,
2013-02-04 08:16:00,23.3,15.0,30.09,SW,229,0.0,3.0,69,0.00,,,0.00,weatherlink.com 1.10,2013-02-04 13:16:00,
2013-02-04 08:21:00,23.4,15.1,30.08,SW,229,1.0,1.0,70,0.00,,,0.00,Wunderground v.1.15,2013-02-04 13:21:00,
2013-02-04 08:26:00,23.6,14.6,30.08,SW,229,0.0,1.0,68,0.00,,,0.00,Wunderground v.1.15,2013-02-04 13:26:00,
2013-02-04 08:31:00,23.9,13.8,30.08,South,187,1.0,1.0,65,0.00,,,0.00,Wunderground v.1.15,2013-02-04 13:31:00,
2013-02-04 08:37:00,24.0,13.9,30.08,South,187,1.0,1.0,65,0.00,,,0.00,Wunderground v.1.15,2013-02-04 13:37:00,
2013-02-04 08:43:00,24.2,13.4,30.08,South,187,1.0,1.0,63,0.00,,,0.00,Wunderground v.1.15,2013-02-04 13:43:00,
2013-02-04 08:49:00,24.3,13.5,30.08,South,187,1.0,2.0,63,0.00,,,0.00,Wunderground v.1.15,2013-02-04 13:49:00,
2013-02-04 08:54:00,24.4,13.6,30.09,South,176,1.0,2.0,63,0.00,,,0.00,Wunderground v.1.15,2013-02-04 13:54:00,
2013-02-04 08:59:00,24.6,13.8,30.09,South,176,1.0,2.0,63,0.00,,,0.00,Wunderground v.1.15,2013-02-04 13:59:00,
2013-02-04 09:04:00,24.8,13.6,30.09,South,176,1.0,3.0,62,0.00,,,0.00,Wunderground v.1.15,2013-02-04 14:04:00,
2013-02-04 09:10:00,25.0,14.2,30.09,South,174,1.0,1.0,63,0.00,,,0.00,Wunderground v.1.15,2013-02-04 14:10:00,
2013-02-04 09:16:00,25.4,14.0,30.09,SSE,150,2.0,4.0,61,0.00,,,0.00,weatherlink.com 1.10,2013-02-04 14:16:00,
2013-02-04 09:21:00,25.5,13.5,30.09,SSE,151,2.0,2.0,60,0.00,,,0.00,Wunderground v.1.15,2013-02-04 14:21:00,
2013-02-04 09:26:00,25.7,14.1,30.09,SSE,151,2.0,2.0,61,0.00,,,0.00,Wunderground v.1.15,2013-02-04 14:26:00,
2013-02-04 09:31:00,25.9,14.3,30.09,SSE,167,2.0,2.0,61,0.00,,,0.00,Wunderground v.1.15,2013-02-04 14:31:00,
2013-02-04 09:37:00,26.2,14.2,30.09,South,169,1.0,2.0,60,0.00,,,0.00,Wunderground v.1.15,2013-02-04 14:37:00,
2013-02-04 09:42:00,26.6,14.9,30.09,West,271,1.0,1.0,61,0.00,,,0.00,Wunderground v.1.15,2013-02-04 14:42:00,
2013-02-04 09:47:00,26.9,14.5,30.09,WSW,246,1.0,2.0,59,0.00,,,0.00,Wunderground v.1.15,2013-02-04 14:47:00,
2013-02-04 09:52:00,27.3,14.8,30.08,SW,223,1.0,3.0,59,0.00,,,0.00,Wunderground v.1.15,2013-02-04 14:52:00,
2013-02-04 09:57:00,27.6,14.7,30.08,South,186,1.0,4.0,58,0.00,,,0.00,Wunderground v.1.15,2013-02-04 14:57:00,
2013-02-04 10:03:00,27.8,15.0,30.08,SSE,157,1.0,5.0,59,0.00,,,0.00,weatherlink.com 1.10,2013-02-04 15:03:00,
2013-02-04 10:09:00,27.9,14.6,30.08,South,184,3.0,4.0,57,0.00,,,0.00,Wunderground v.1.15,2013-02-04 15:09:00,
2013-02-04 10:14:00,27.9,14.6,30.08,South,178,3.0,5.0,57,0.00,,,0.00,Wunderground v.1.15,2013-02-04 15:14:00,
2013-02-04 10:19:00,28.0,15.5,30.08,South,191,3.0,5.0,59,0.00,,,0.00,Wunderground v.1.15,2013-02-04 15:19:00,
2013-02-04 10:24:00,28.2,14.5,30.07,SE,132,2.0,2.0,56,0.00,,,0.00,Wunderground v.1.15,2013-02-04 15:24:00,
2013-02-04 10:29:00,28.5,14.8,30.08,SW,223,1.0,2.0,56,0.00,,,0.00,Wunderground v.1.15,2013-02-04 15:29:00,
2013-02-04 10:34:00,28.6,14.9,30.07,SSE,164,1.0,3.0,56,0.00,,,0.00,Wunderground v.1.15,2013-02-04 15:34:00,
2013-02-04 10:39:00,28.8,14.6,30.07,WSW,255,2.0,3.0,55,0.00,,,0.00,Wunderground v.1.15,2013-02-04 15:39:00,
2013-02-04 10:45:00,29.0,14.0,30.07,WSW,250,2.0,4.0,53,0.00,,,0.00,Wunderground v.1.15,2013-02-04 15:45:00,
2013-02-04 10:50:00,29.2,15.0,30.06,SSW,212,2.0,3.0,55,0.00,,,0.00,Wunderground v.1.15,2013-02-04 15:50:00,
2013-02-04 10:55:00,29.4,14.4,30.06,SSW,202,1.0,3.0,53,0.00,,,0.00,Wunderground v.1.15,2013-02-04 15:55:00,
2013-02-04 11:01:00,29.7,14.2,30.06,SSE,153,1.0,1.0,52,0.00,,,0.00,Wunderground v.1.15,2013-02-04 16:01:00,
2013-02-04 11:06:00,29.8,14.3,30.06,SSW,200,2.0,4.0,52,0.00,,,0.00,Wunderground v.1.15,2013-02-04 16:06:00,
2013-02-04 11:11:00,30.0,16.2,30.06,SSW,203,1.0,2.0,56,0.00,,,0.00,Wunderground v.1.15,2013-02-04 16:11:00,
2013-02-04 11:16:00,30.7,16.0,30.06,South,190,1.0,2.0,54,0.00,,,0.00,Wunderground v.1.15,2013-02-04 16:16:00,
2013-02-04 11:21:00,31.0,15.4,30.05,South,180,2.0,3.0,52,0.00,,,0.00,Wunderground v.1.15,2013-02-04 16:21:00,
2013-02-04 11:26:00,31.1,15.1,30.05,South,174,2.0,3.0,51,0.00,,,0.00,Wunderground v.1.15,2013-02-04 16:26:00,
2013-02-04 11:32:00,31.2,15.6,30.05,SW,219,2.0,2.0,52,0.00,,,0.00,Wunderground v.1.15,2013-02-04 16:32:00,
2013-02-04 11:37:00,31.3,15.7,30.05,SSE,158,2.0,3.0,52,0.00,,,0.00,Wunderground v.1.15,2013-02-04 16:37:00,
2013-02-04 11:43:00,31.3,14.8,30.04,South,176,3.0,5.0,50,0.00,,,0.00,Wunderground v.1.15,2013-02-04 16:43:00,
2013-02-04 11:48:00,31.4,15.8,30.04,WSW,247,3.0,5.0,52,0.00,,,0.00,Wunderground v.1.15,2013-02-04 16:48:00,
2013-02-04 11:54:00,31.9,16.7,30.03,SE,139,2.0,3.0,53,0.00,,,0.00,Wunderground v.1.15,2013-02-04 16:54:00,
2013-02-04 11:59:00,32.1,16.0,30.03,South,176,2.0,3.0,51,0.00,,,0.00,Wunderground v.1.15,2013-02-04 16:59:00,
2013-02-04 12:04:00,32.3,16.6,30.02,WNW,298,2.0,4.0,52,0.00,,,0.00,Wunderground v.1.15,2013-02-04 17:04:00,
2013-02-04 12:10:00,32.7,16.5,30.02,West,279,2.0,2.0,51,0.00,,,0.00,Wunderground v.1.15,2013-02-04 17:10:00,
2013-02-04 12:15:00,32.8,16.2,30.02,South,188,2.0,3.0,50,0.00,,,0.00,Wunderground v.1.15,2013-02-04 17:15:00,
2013-02-04 12:20:00,33.0,16.0,30.02,South,184,2.0,5.0,49,0.00,,,0.00,weatherlink.com 1.10,2013-02-04 17:20:00,
2013-02-04 12:26:00,33.3,17.1,30.01,SW,231,2.0,3.0,51,0.00,,,0.00,Wunderground v.1.15,2013-02-04 17:26:00,
2013-02-04 12:32:00,33.5,15.4,30.01,SSE,166,3.0,5.0,47,0.00,,,0.00,Wunderground v.1.15,2013-02-04 17:32:00,
2013-02-04 12:37:00,33.8,16.2,30.00,WSW,241,3.0,5.0,48,0.00,,,0.00,Wunderground v.1.15,2013-02-04 17:37:00,
2013-02-04 12:44:00,34.3,16.6,30.00,SSW,194,2.0,4.0,48,0.00,,,0.00,Wunderground v.1.15,2013-02-04 17:44:00,
2013-02-04 12:49:00,34.6,17.8,30.00,WSW,258,2.0,4.0,50,0.00,,,0.00,Wunderground v.1.15,2013-02-04 17:49:00,
2013-02-04 12:54:00,34.6,16.9,30.00,SSW,205,2.0,3.0,48,0.00,,,0.00,Wunderground v.1.15,2013-02-04 17:54:00,
2013-02-04 13:01:00,34.2,17.5,30.00,SSE,159,3.0,5.0,50,0.00,,,0.00,Wunderground v.1.15,2013-02-04 18:01:00,
2013-02-04 13:06:00,33.7,16.0,29.99,SSW,202,0.0,6.0,48,0.00,,,0.00,weatherlink.com 1.10,2013-02-04 18:06:00,
2013-02-04 13:11:00,33.8,17.6,29.99,SSE,162,2.0,3.0,51,0.00,,,0.00,Wunderground v.1.15,2013-02-04 18:11:00,
2013-02-04 13:17:00,34.1,17.4,29.99,South,179,2.0,3.0,50,0.00,,,0.00,Wunderground v.1.15,2013-02-04 18:17:00,
2013-02-04 13:22:00,34.3,17.6,29.98,South,178,2.0,4.0,50,0.00,,,0.00,Wunderground v.1.15,2013-02-04 18:22:00,
2013-02-04 13:27:00,34.7,17.5,29.98,WSW,248,2.0,4.0,49,0.00,,,0.00,Wunderground v.1.15,2013-02-04 18:27:00,
2013-02-04 13:32:00,35.2,17.9,29.97,SE,144,2.0,3.0,49,0.00,,,0.00,Wunderground v.1.15,2013-02-04 18:32:00,
2013-02-04 13:39:00,35.8,18.0,29.97,South,180,2.0,4.0,48,0.00,,,0.00,Wunderground v.1.15,2013-02-04 18:39:00,
2013-02-04 13:44:00,35.8,17.5,29.97,SW,227,2.0,2.0,47,0.00,,,0.00,Wunderground v.1.15,2013-02-04 18:44:00,
2013-02-04 13:49:00,35.6,17.8,29.97,SW,235,2.0,2.0,48,0.00,,,0.00,Wunderground v.1.15,2013-02-04 18:49:00,
2013-02-04 13:54:00,35.4,17.1,29.97,WSW,244,2.0,2.0,47,0.00,,,0.00,Wunderground v.1.15,2013-02-04 18:54:00,
2013-02-04 14:00:00,35.4,17.6,29.96,SSW,199,2.0,2.0,48,0.00,,,0.00,Wunderground v.1.15,2013-02-04 19:00:00,
2013-02-04 14:06:00,35.7,17.0,29.96,SSE,151,2.0,7.0,47,0.00,,,0.00,weatherlink.com 1.10,2013-02-04 19:06:00,
2013-02-04 14:12:00,36.1,17.8,29.96,South,170,3.0,3.0,47,0.00,,,0.00,Wunderground v.1.15,2013-02-04 19:12:00,
2013-02-04 14:17:00,36.4,18.6,29.96,SSW,195,2.0,3.0,48,0.00,,,0.00,Wunderground v.1.15,2013-02-04 19:17:00,
2013-02-04 14:22:00,36.5,18.2,29.96,SSE,163,2.0,2.0,47,0.00,,,0.00,Wunderground v.1.15,2013-02-04 19:22:00,
2013-02-04 14:27:00,36.4,18.1,29.95,SW,232,2.0,2.0,47,0.00,,,0.00,Wunderground v.1.15,2013-02-04 19:27:00,
2013-02-04 14:32:00,36.4,19.0,29.95,SW,231,1.0,2.0,49,0.00,,,0.00,Wunderground v.1.15,2013-02-04 19:32:00,
2013-02-04 14:39:00,36.4,19.0,29.95,SSW,212,2.0,5.0,49,0.00,,,0.00,Wunderground v.1.15,2013-02-04 19:39:00,
2013-02-04 14:44:00,36.3,18.9,29.95,SW,219,2.0,2.0,49,0.00,,,0.00,Wunderground v.1.15,2013-02-04 19:44:00,
2013-02-04 14:49:00,36.2,18.4,29.95,SW,219,1.0,2.0,48,0.00,,,0.00,Wunderground v.1.15,2013-02-04 19:49:00,
2013-02-04 14:54:00,36.1,18.3,29.94,SSE,166,2.0,4.0,48,0.00,,,0.00,Wunderground v.1.15,2013-02-04 19:54:00,
2013-02-04 14:59:00,36.1,19.2,29.94,South,174,2.0,4.0,50,0.00,,,0.00,Wunderground v.1.15,2013-02-04 19:59:00,
2013-02-04 15:04:00,36.4,19.5,29.94,SSW,203,2.0,2.0,50,0.00,,,0.00,Wunderground v.1.15,2013-02-04 20:04:00,
2013-02-04 15:10:00,36.4,18.6,29.94,SSW,212,2.0,2.0,48,0.00,,,0.00,Wunderground v.1.15,2013-02-04 20:10:00,
2013-02-04 15:15:00,36.4,19.5,29.94,North,5,2.0,2.0,50,0.00,,,0.00,Wunderground v.1.15,2013-02-04 20:15:00,
2013-02-04 15:20:00,36.3,18.9,29.94,SSE,152,1.0,2.0,49,0.00,,,0.00,Wunderground v.1.15,2013-02-04 20:20:00,
2013-02-04 15:26:00,36.2,19.3,29.94,SW,236,2.0,4.0,50,0.00,,,0.00,Wunderground v.1.15,2013-02-04 20:26:00,
2013-02-04 15:31:00,36.4,20.0,29.94,WSW,256,2.0,2.0,51,0.00,,,0.00,Wunderground v.1.15,2013-02-04 20:31:00,
2013-02-04 15:36:00,36.8,20.3,29.94,SSW,213,1.0,2.0,51,0.00,,,0.00,Wunderground v.1.15,2013-02-04 20:36:00,
2013-02-04 15:42:00,37.1,20.6,29.94,WSW,240,2.0,2.0,51,0.00,,,0.00,Wunderground v.1.15,2013-02-04 20:42:00,
2013-02-04 15:47:00,37.2,20.7,29.94,SW,227,1.0,2.0,51,0.00,,,0.00,Wunderground v.1.15,2013-02-04 20:47:00,
2013-02-04 15:53:00,37.3,20.0,29.94,SSW,196,3.0,4.0,50,0.00,,,0.00,weatherlink.com 1.10,2013-02-04 20:53:00,
2013-02-04 15:59:00,37.1,20.2,29.94,SW,217,2.0,4.0,50,0.00,,,0.00,Wunderground v.1.15,2013-02-04 20:59:00,
2013-02-04 16:04:00,36.9,20.0,29.94,SW,217,1.0,2.0,50,0.00,,,0.00,Wunderground v.1.15,2013-02-04 21:04:00,
2013-02-04 16:10:00,36.8,20.8,29.94,SE,138,1.0,1.0,52,0.00,,,0.00,Wunderground v.1.15,2013-02-04 21:10:00,
2013-02-04 16:15:00,36.8,21.3,29.94,SE,138,1.0,1.0,53,0.00,,,0.00,Wunderground v.1.15,2013-02-04 21:15:00,
2013-02-04 16:20:00,36.8,21.3,29.93,SSW,209,0.0,0.0,53,0.00,,,0.00,Wunderground v.1.15,2013-02-04 21:20:00,
2013-02-04 16:26:00,36.9,21.3,29.93,SSW,209,0.0,2.0,53,0.00,,,0.00,Wunderground v.1.15,2013-02-04 21:26:00,
2013-02-04 16:32:00,36.9,20.4,29.94,SSW,202,0.0,1.0,51,0.00,,,0.00,Wunderground v.1.15,2013-02-04 21:32:00,
2013-02-04 16:37:00,36.8,20.0,29.94,South,181,1.0,3.0,51,0.00,,,0.00,weatherlink.com 1.10,2013-02-04 21:37:00,
2013-02-04 16:43:00,36.6,21.1,29.94,South,181,1.0,1.0,53,0.00,,,0.00,Wunderground v.1.15,2013-02-04 21:43:00,
2013-02-04 16:48:00,36.4,20.4,29.93,South,181,1.0,2.0,52,0.00,,,0.00,Wunderground v.1.15,2013-02-04 21:48:00,
2013-02-04 16:54:00,36.3,20.3,29.93,South,181,0.0,0.0,52,0.00,,,0.00,Wunderground v.1.15,2013-02-04 21:54:00,
2013-02-04 16:59:00,36.2,22.0,29.93,South,181,0.0,1.0,56,0.00,,,0.00,Wunderground v.1.15,2013-02-04 21:59:00,
2013-02-04 17:04:00,36.1,21.0,29.93,South,181,0.0,0.0,54,0.00,,,0.00,Wunderground v.1.15,2013-02-04 22:04:00,
2013-02-04 17:10:00,36.0,20.9,29.93,South,181,0.0,0.0,54,0.00,,,0.00,Wunderground v.1.15,2013-02-04 22:10:00,
2013-02-04 17:15:00,35.9,21.7,29.92,South,181,0.0,1.0,56,0.00,,,0.00,Wunderground v.1.15,2013-02-04 22:15:00,
2013-02-04 17:20:00,35.7,21.5,29.93,West,277,0.0,0.0,56,0.00,,,0.00,Wunderground v.1.15,2013-02-04 22:20:00,
2013-02-04 17:25:00,35.7,21.5,29.93,West,277,0.0,0.0,56,0.00,,,0.00,Wunderground v.1.15,2013-02-04 22:25:00,
2013-02-04 17:30:00,35.5,21.3,29.93,West,277,0.0,0.0,56,0.00,,,0.00,Wunderground v.1.15,2013-02-04 22:30:00,
2013-02-04 17:36:00,35.4,21.7,29.93,WSW,246,0.0,2.0,57,0.00,,,0.00,Wunderground v.1.15,2013-02-04 22:36:00,
2013-02-04 17:41:00,35.3,22.4,29.93,SSE,167,1.0,3.0,59,0.00,,,0.00,Wunderground v.1.15,2013-02-04 22:41:00,
2013-02-04 17:46:00,35.2,22.7,29.93,SSW,202,1.0,3.0,60,0.00,,,0.00,Wunderground v.1.15,2013-02-04 22:46:00,
2013-02-04 17:51:00,35.2,23.1,29.93,SW,220,2.0,2.0,61,0.00,,,0.00,Wunderground v.1.15,2013-02-04 22:51:00,
2013-02-04 17:57:00,35.0,23.7,29.93,SSE,167,1.0,3.0,63,0.00,,,0.00,Wunderground v.1.15,2013-02-04 22:57:00,
2013-02-04 18:02:00,34.8,23.9,29.93,SSE,167,1.0,1.0,64,0.00,,,0.00,Wunderground v.1.15,2013-02-04 23:02:00,
2013-02-04 18:07:00,34.7,23.8,29.93,SSE,167,1.0,1.0,64,0.00,,,0.00,Wunderground v.1.15,2013-02-04 23:07:00,
2013-02-04 18:14:00,34.6,23.3,29.92,SW,221,0.0,1.0,63,0.00,,,0.00,Wunderground v.1.15,2013-02-04 23:14:00,
2013-02-04 18:19:00,34.6,23.3,29.92,SSE,147,0.0,2.0,63,0.00,,,0.00,Wunderground v.1.15,2013-02-04 23:19:00,
2013-02-04 18:25:00,34.5,23.2,29.92,South,182,1.0,4.0,63,0.00,,,0.00,Wunderground v.1.15,2013-02-04 23:25:00,
2013-02-04 18:30:00,34.5,22.0,29.92,South,175,2.0,3.0,60,0.00,,,0.00,Wunderground v.1.15,2013-02-04 23:30:00,
2013-02-04 18:35:00,34.4,21.1,29.92,South,171,2.0,4.0,58,0.00,,,0.00,Wunderground v.1.15,2013-02-04 23:35:00,
2013-02-04 18:40:00,34.2,21.0,29.93,South,172,1.0,4.0,58,0.00,,,0.00,weatherlink.com 1.10,2013-02-04 23:40:00,
2013-02-04 18:46:00,33.9,21.1,29.93,South,172,2.0,3.0,59,0.00,,,0.00,Wunderground v.1.15,2013-02-04 23:46:00,
2013-02-04 18:51:00,33.8,21.0,29.93,South,172,1.0,3.0,59,0.00,,,0.00,Wunderground v.1.15,2013-02-04 23:51:00,
2013-02-04 18:56:00,33.8,21.4,29.93,South,177,1.0,3.0,60,0.00,,,0.00,Wunderground v.1.15,2013-02-04 23:56:00,
2013-02-04 19:02:00,33.7,21.7,29.93,South,177,1.0,2.0,61,0.00,,,0.00,Wunderground v.1.15,2013-02-05 00:02:00,
2013-02-04 19:08:00,33.6,21.0,29.93,South,177,0.0,2.0,61,0.00,,,0.00,weatherlink.com 1.10,2013-02-05 00:08:00,
2013-02-04 19:13:00,33.5,21.9,29.92,South,177,0.0,1.0,62,0.00,,,0.00,Wunderground v.1.15,2013-02-05 00:13:00,
2013-02-04 19:18:00,33.4,21.8,29.92,South,177,0.0,1.0,62,0.00,,,0.00,Wunderground v.1.15,2013-02-05 00:18:00,
2013-02-04 19:23:00,33.4,22.1,29.92,South,177,0.0,0.0,63,0.00,,,0.00,Wunderground v.1.15,2013-02-05 00:23:00,
2013-02-04 19:29:00,33.3,22.1,29.92,South,177,0.0,0.0,63,0.00,,,0.00,Wunderground v.1.15,2013-02-05 00:29:00,
2013-02-04 19:34:00,33.3,22.4,29.92,South,177,0.0,0.0,64,0.00,,,0.00,Wunderground v.1.15,2013-02-05 00:34:00,
2013-02-04 19:39:00,33.2,22.0,29.92,South,177,0.0,0.0,63,0.00,,,0.00,Wunderground v.1.15,2013-02-05 00:39:00,
2013-02-04 19:44:00,33.2,22.7,29.92,South,177,0.0,0.0,65,0.00,,,0.00,Wunderground v.1.15,2013-02-05 00:44:00,
2013-02-04 19:49:00,33.2,22.3,29.92,South,177,0.0,0.0,64,0.00,,,0.00,Wunderground v.1.15,2013-02-05 00:49:00,
2013-02-04 19:54:00,33.1,22.6,29.92,South,177,0.0,0.0,65,0.00,,,0.00,Wunderground v.1.15,2013-02-05 00:54:00,
2013-02-04 19:59:00,33.1,23.3,29.92,South,177,0.0,0.0,67,0.00,,,0.00,Wunderground v.1.15,2013-02-05 00:59:00,
2013-02-04 20:05:00,33.0,22.9,29.92,South,177,0.0,0.0,66,0.00,,,0.00,Wunderground v.1.15,2013-02-05 01:05:00,
2013-02-04 20:11:00,33.0,23.0,29.92,South,177,0.0,0.0,67,0.00,,,0.00,weatherlink.com 1.10,2013-02-05 01:11:00,
2013-02-04 20:16:00,33.0,23.6,29.92,South,177,0.0,0.0,68,0.00,,,0.00,Wunderground v.1.15,2013-02-05 01:16:00,
2013-02-04 20:22:00,33.0,23.9,29.92,South,177,0.0,0.0,69,0.00,,,0.00,Wunderground v.1.15,2013-02-05 01:22:00,
2013-02-04 20:27:00,33.0,24.3,29.92,South,177,0.0,0.0,70,0.00,,,0.00,Wunderground v.1.15,2013-02-05 01:27:00,
2013-02-04 20:32:00,32.9,24.2,29.92,South,177,0.0,0.0,70,0.00,,,0.00,Wunderground v.1.15,2013-02-05 01:32:00,
2013-02-04 20:37:00,32.9,24.9,29.92,South,177,0.0,0.0,72,0.00,,,0.00,Wunderground v.1.15,2013-02-05 01:37:00,
2013-02-04 20:42:00,32.9,24.2,29.92,South,177,0.0,1.0,70,0.00,,,0.00,Wunderground v.1.15,2013-02-05 01:42:00,
2013-02-04 20:48:00,32.8,23.4,29.92,NE,55,0.0,1.0,68,0.00,,,0.00,Wunderground v.1.15,2013-02-05 01:48:00,
2013-02-04 20:54:00,32.8,23.7,29.92,ENE,67,0.0,1.0,69,0.00,,,0.00,Wunderground v.1.15,2013-02-05 01:54:00,
2013-02-04 20:59:00,32.9,24.5,29.91,ENE,67,0.0,1.0,71,0.00,,,0.00,Wunderground v.1.15,2013-02-05 01:59:00,
2013-02-04 21:05:00,33.0,25.3,29.92,ENE,67,0.0,0.0,73,0.00,,,0.00,Wunderground v.1.15,2013-02-05 02:05:00,
2013-02-04 21:10:00,33.0,25.0,29.91,ENE,67,2.0,2.0,73,0.00,,,0.00,weatherlink.com 1.10,2013-02-05 02:10:00,
2013-02-04 21:16:00,33.3,25.2,29.91,East,93,0.0,2.0,72,0.00,,,0.00,Wunderground v.1.15,2013-02-05 02:16:00,
2013-02-04 21:21:00,33.4,25.3,29.91,East,93,0.0,0.0,72,0.00,,,0.00,Wunderground v.1.15,2013-02-05 02:21:00,
2013-02-04 21:27:00,33.4,25.0,29.91,East,93,0.0,0.0,71,0.00,,,0.00,Wunderground v.1.15,2013-02-05 02:27:00,
2013-02-04 21:32:00,33.4,25.0,29.91,East,93,0.0,0.0,71,0.00,,,0.00,Wunderground v.1.15,2013-02-05 02:32:00,
2013-02-04 21:37:00,33.4,25.0,29.91,East,93,0.0,0.0,71,0.00,,,0.00,Wunderground v.1.15,2013-02-05 02:37:00,
2013-02-04 21:44:00,33.3,24.9,29.91,East,93,0.0,0.0,71,0.00,,,0.00,Wunderground v.1.15,2013-02-05 02:44:00,
2013-02-04 21:49:00,33.3,24.9,29.91,East,93,0.0,0.0,71,0.00,,,0.00,Wunderground v.1.15,2013-02-05 02:49:00,
2013-02-04 21:55:00,33.2,24.8,29.90,East,93,0.0,1.0,71,0.00,,,0.00,Wunderground v.1.15,2013-02-05 02:55:00,
2013-02-04 22:01:00,33.0,24.6,29.90,East,93,0.0,0.0,71,0.00,,,0.00,Wunderground v.1.15,2013-02-05 03:01:00,
2013-02-04 22:06:00,32.9,24.5,29.90,East,93,0.0,0.0,71,0.00,,,0.00,Wunderground v.1.15,2013-02-05 03:06:00,
2013-02-04 22:11:00,32.7,24.3,29.90,East,93,0.0,0.0,71,0.00,,,0.00,Wunderground v.1.15,2013-02-05 03:11:00,
2013-02-04 22:19:00,32.5,24.5,29.90,East,93,0.0,0.0,72,0.00,,,0.00,Wunderground v.1.15,2013-02-05 03:19:00,
2013-02-04 22:24:00,32.4,24.7,29.90,East,93,0.0,0.0,73,0.00,,,0.00,Wunderground v.1.15,2013-02-05 03:24:00,
2013-02-04 22:29:00,32.4,24.7,29.90,East,93,0.0,0.0,73,0.00,,,0.00,Wunderground v.1.15,2013-02-05 03:29:00,
2013-02-04 22:34:00,32.4,24.7,29.89,East,94,0.0,0.0,73,0.00,,,0.00,Wunderground v.1.15,2013-02-05 03:34:00,
2013-02-04 22:40:00,32.6,24.6,29.90,ESE,116,0.0,0.0,72,0.00,,,0.00,Wunderground v.1.15,2013-02-05 03:40:00,
2013-02-04 22:45:00,32.8,24.4,29.90,WNW,286,0.0,0.0,71,0.00,,,0.00,Wunderground v.1.15,2013-02-05 03:45:00,
2013-02-04 22:50:00,32.9,24.5,29.89,WSW,237,0.0,0.0,71,0.00,,,0.00,Wunderground v.1.15,2013-02-05 03:50:00,
2013-02-04 22:56:00,32.9,24.5,29.89,WSW,238,0.0,1.0,71,0.00,,,0.00,Wunderground v.1.15,2013-02-05 03:56:00,
2013-02-04 23:01:00,32.9,24.2,29.89,SW,220,1.0,1.0,70,0.00,,,0.00,Wunderground v.1.15,2013-02-05 04:01:00,
2013-02-04 23:07:00,33.0,24.3,29.89,SSW,207,1.0,2.0,70,0.00,,,0.00,Wunderground v.1.15,2013-02-05 04:07:00,
2013-02-04 23:13:00,32.9,24.0,29.89,SSW,207,0.0,2.0,69,0.00,,,0.00,weatherlink.com 1.10,2013-02-05 04:13:00,
2013-02-04 23:19:00,32.9,24.2,29.89,SSW,207,0.0,1.0,70,0.00,,,0.00,Wunderground v.1.15,2013-02-05 04:19:00,
2013-02-04 23:24:00,32.8,24.1,29.89,SSW,208,0.0,0.0,70,0.00,,,0.00,Wunderground v.1.15,2013-02-05 04:24:00,
2013-02-04 23:29:00,32.5,24.0,29.89,SSW,208,0.0,0.0,71,0.00,,,0.00,weatherlink.com 1.10,2013-02-05 04:29:00,
2013-02-04 23:34:00,32.3,23.9,29.88,SSW,208,0.0,0.0,71,0.00,,,0.00,Wunderground v.1.15,2013-02-05 04:34:00,
2013-02-04 23:39:00,32.2,23.8,29.88,SSW,207,0.0,0.0,71,0.00,,,0.00,Wunderground v.1.15,2013-02-05 04:39:00,
2013-02-04 23:44:00,32.1,24.1,29.88,SSW,208,0.0,0.0,72,0.00,,,0.00,Wunderground v.1.15,2013-02-05 04:44:00,
2013-02-04 23:49:00,32.0,24.0,29.88,SSW,198,0.0,0.0,72,0.00,,,0.00,Wunderground v.1.15,2013-02-05 04:49:00,
2013-02-04 23:55:00,32.0,23.7,29.88,West,274,0.0,1.0,71,0.00,,,0.00,Wunderground v.1.15,2013-02-05 04:55:00,